Location: Stony Creek
(40.9500°S, 175.8500°E)
Time: 08:59:27
(UTC+00:00)

NOSS 3-1 (A) - Pass Details

Date: 15 May 2026
Orbit: 613 x 1593 km, 63.4° (Epoch: 10 January)

Event Time Altitude Azimuth Distance (km) Brightness Sun altitude
Exits shadow 16:49:48 48° 187° (S) 1,158 3.7 -27.8°
Maximum altitude 16:51:19 65° 129° (SE) 934 3.5 -27.5°
Drops below altitude 10° 16:56:21 10° 46° (NE) 2,230 6.0 -26.6°
Sets 16:58:30 0° 43° (NE) 3,058 6.8 -26.2°
